Regional Weather Roundup
Issued by NWS

Home | Current Version | Previous Version | Graphics & Text | Print | Product List | Glossary On
Versions: 1 2 3 4 5 6 7 8 9 10 11 12 13 14 15 16 17 18 19 20 21 22 23 24 25 26 27 28 29 30 31 32 33 34 35 36 37 38 39 40 41 42 43 44 45 46 47 48 49 50
430
ASUS43 KFSD 242302
RWRSD

WEATHER ROUNDUP FOR SOUTH DAKOTA
NATIONAL WEATHER SERVICE SIOUX FALLS SD
600 PM CDT WED MAY 24 2017

NOTE: "FAIR" INDICATES FEW OR NO CLOUDS BELOW 12,000 FEET WITH NO
SIGNIFICANT WEATHER AND/OR OBSTRUCTIONS TO VISIBILITY.


SDZ001>005-009-010-012>017-250000-
NORTHWEST AND NORTH CENTRAL SOUTH DAKOTA

CITY           SKY/WX    TMP DP  RH WIND       PRES   REMARKS
BUFFALO          N/A     76  43  30 S31G43    29.25F
FAITH            N/A     71  40  32 S32G41    29.40F
MOBRIDGE       SUNNY     69  40  34 S22G35    29.47F
$$

SDZ012>016-024>037-041>051-057-063-072>074-250000-
SOUTHWEST AND SOUTH CENTRAL SOUTH DAKOTA

CITY           SKY/WX    TMP DP  RH WIND       PRES   REMARKS
RAPID CTY ARPT SUNNY     78  48  34 S22G31    29.39F
PIERRE         SUNNY     70  41  34 S24       29.50F
CUSTER         SUNNY     71  42  35 S10       29.51F
ELLSWORTH AFB  SUNNY     77  48  36 S25G33    29.37F
PHILIP         SUNNY     76  42  29 SE22G30   29.44F
PINE RIDGE     SUNNY     79  49  34 S16G24    29.45F
SPEARFISH      LGT RAIN  77  52  41 E8        29.36F
WINNER         FAIR      70  44  39 SE18G24   29.56F
$$

SDZ004>011-016>023-039-040-250000-
NORTHEAST SOUTH DAKOTA

CITY           SKY/WX    TMP DP  RH WIND       PRES   REMARKS
ABERDEEN       MOSUNNY   67  41  38 SE21G26   29.59F
WATERTOWN      CLOUDY    59  44  57 S10       29.66S
BROOKINGS      CLOUDY    59  46  62 SE12      29.67F
SISSETON         N/A     62  44  51 S10       29.65F
$$

SDZ017-020-022-023-036>040-048>070-250000-
SOUTHEAST SOUTH DAKOTA

CITY           SKY/WX    TMP DP  RH WIND       PRES   REMARKS
SIOUX FALLS    PTSUNNY   64  47  53 E7        29.66F
HURON          MOSUNNY   65  45  48 S18G26    29.62F
MITCHELL       MOSUNNY   67  45  45 S15G22    29.64F
YANKTON        MOSUNNY   64  44  48 SE6       29.66F
$$

ABBREVIATIONS USED IN REMARKS
   TC - TEMPERATURE IN CELSIUS
  WCI - WIND CHILL INDEX
   HX - HEAT INDEX
  VSB - VISIBILITY





USA.gov is the U.S. government's official web portal to all federal, state and local government web resources and services.